{"data":{"norad_id":66208,"intl_designator":"2025-244C","name":"STARLINK-35751","alt_names":[],"object_type":"PAYLOAD","status":"ACTIVE","operator":null,"country":"US","launch_date":"2025-10-28","launch_site_code":"AFWTR","launch_vehicle":null,"mission":null,"orbit_class":"UNKNOWN","rcs_meters":null,"size_class":null,"mass_kg":null,"dimensions":null,"purposes":["comms"],"wikipedia_slug":null,"has_3d_model":false,"image_url":null,"decayed_at":null,"tle_current":{"epoch":"2026-05-24T17:28:25.597920Z","epoch_age_seconds":102130,"freshness":"FRESH","line1":"1 66208U 25244C   26144.72807405  .00009890  00000+0  34556-3 0  9990","line2":"2 66208  53.1581 236.5598 0001074  72.2111 287.9007 15.30202274 33309","mean_motion":15.30202274,"eccentricity":0.0001074,"inclination_deg":53.1581,"raan_deg":236.5598,"arg_perigee_deg":72.2111,"mean_anomaly_deg":287.9007,"bstar":0.00034556,"rev_number":3330,"period_min":94.105205858556,"perigee_km":474.47223039059,"apogee_km":475.94432895666,"semimajor_km":6853.3452796736,"source":"CELESTRAK","updated_at":"2026-05-25T13:38:21.126537Z"}}}